When you browse on this site, cookies collect data to enhance your experience and personalize the content and advertising you see.
Visit our Privacy Policy to learn more. By continuing to use the site, you agree to this use of cookies and data.
  • en Suisse
  • Liste des pays
  • À 7 jours
  • Température de l'eau
  • Carte météo
  • Widgets météo
  • user-avatar
    Se connecter

    Météo par heure à Nordhausen

    Ce jour, 26 Mai, Mardi

    Heure Température Précipitation Vent Pression Humidité
    00:00 +7°C° 0 mm 2 m/s 753 mmHg 94%
    01:00 +7°C° 0 mm 2 m/s 753 mmHg 94%
    02:00 +6°C° 0 mm 2 m/s 753 mmHg 95%
    03:00 +7°C° 0 mm 1 m/s 753 mmHg 95%
    04:00 +7°C° 0 mm 1 m/s 753 mmHg 96%
    05:00 +8°C° 0 mm 1 m/s 754 mmHg 93%
    06:00 +10°C° 0 mm 1 m/s 754 mmHg 90%
    07:00 +11°C° 0 mm 1 m/s 754 mmHg 87%
    08:00 +12°C° 0 mm 2 m/s 754 mmHg 82%
    09:00 +14°C° 0 mm 2 m/s 754 mmHg 76%
    10:00 +15°C° 0 mm 2 m/s 755 mmHg 71%
    11:00 +16°C° 0 mm 2 m/s 754 mmHg 67%
    12:00 +17°C° 0 mm 2 m/s 754 mmHg 64%
    13:00 +18°C° 0 mm 2 m/s 754 mmHg 60%
    14:00 +19°C° 0 mm 1 m/s 754 mmHg 60%
    15:00 +19°C° 0 mm 1 m/s 753 mmHg 60%
    16:00 +20°C° 0 mm 1 m/s 753 mmHg 59%
    17:00 +19°C° 0.1 mm 1 m/s 753 mmHg 66%
    18:00 +18°C° 0.1 mm 1 m/s 753 mmHg 73%
    19:00 +16°C° 0.1 mm 2 m/s 753 mmHg 80%
    20:00 +14°C° 0 mm 1 m/s 753 mmHg 83%
    21:00 +13°C° 0 mm 1 m/s 753 mmHg 87%
    22:00 +11°C° 0 mm 1 m/s 753 mmHg 90%
    23:00 +11°C° 0 mm 1 m/s 753 mmHg 91%

    Demain, 27 Mai, Mercredi

    Heure Température Précipitation Vent Pression Humidité
    00:00 +11°C° 0 mm 1 m/s 753 mmHg 91%
    01:00 +11°C° 0 mm 1 m/s 753 mmHg 91%
    02:00 +10°C° 0 mm 1 m/s 753 mmHg 92%
    03:00 +10°C° 0 mm 1 m/s 753 mmHg 92%
    04:00 +10°C° 0 mm 1 m/s 753 mmHg 92%
    05:00 +11°C° 0 mm 1 m/s 753 mmHg 89%
    06:00 +13°C° 0 mm 1 m/s 753 mmHg 85%
    07:00 +14°C° 0 mm 1 m/s 753 mmHg 82%
    08:00 +16°C° 0 mm 1 m/s 753 mmHg 77%
    09:00 +17°C° 0 mm 2 m/s 753 mmHg 72%
    10:00 +18°C° 0 mm 2 m/s 753 mmHg 66%
    11:00 +19°C° 0.1 mm 2 m/s 753 mmHg 64%
    12:00 +19°C° 0.1 mm 3 m/s 752 mmHg 61%
    13:00 +20°C° 0.1 mm 3 m/s 752 mmHg 58%
    14:00 +20°C° 0 mm 3 m/s 752 mmHg 59%
    15:00 +20°C° 0 mm 3 m/s 751 mmHg 59%
    16:00 +20°C° 0 mm 3 m/s 751 mmHg 60%
    17:00 +19°C° 0.2 mm 3 m/s 751 mmHg 69%
    18:00 +17°C° 0.2 mm 3 m/s 751 mmHg 77%
    19:00 +16°C° 0.2 mm 3 m/s 751 mmHg 86%
    20:00 +14°C° 0.1 mm 3 m/s 751 mmHg 88%
    21:00 +13°C° 0.1 mm 3 m/s 752 mmHg 91%
    22:00 +12°C° 0.1 mm 3 m/s 752 mmHg 93%
    23:00 +11°C° 0 mm 3 m/s 752 mmHg 93%

    Après-demain, 28 Mai, Jeudi

    Heure Température Précipitation Vent Pression Humidité
    00:00 +10°C° 0 mm 2 m/s 752 mmHg 92%
    01:00 +9°C° 0 mm 2 m/s 752 mmHg 91%
    02:00 +7°C° 0 mm 2 m/s 752 mmHg 93%
    03:00 +6°C° 0 mm 2 m/s 752 mmHg 94%
    04:00 +5°C° 0 mm 2 m/s 752 mmHg 95%
    05:00 +6°C° 0 mm 2 m/s 752 mmHg 90%
    06:00 +7°C° 0 mm 2 m/s 752 mmHg 86%
    07:00 +8°C° 0 mm 2 m/s 752 mmHg 81%
    08:00 +10°C° 0 mm 2 m/s 752 mmHg 73%
    09:00 +11°C° 0 mm 3 m/s 752 mmHg 65%
    10:00 +13°C° 0 mm 3 m/s 752 mmHg 56%
    11:00 +14°C° 0 mm 3 m/s 752 mmHg 55%
    12:00 +16°C° 0 mm 3 m/s 751 mmHg 53%
    13:00 +16°C° 0 mm 3 m/s 751 mmHg 52%
    14:00 +17°C° 0 mm 3 m/s 751 mmHg 53%
    15:00 +17°C° 0 mm 3 m/s 750 mmHg 55%
    16:00 +17°C° 0 mm 4 m/s 750 mmHg 56%
    17:00 +16°C° 0 mm 3 m/s 750 mmHg 62%
    18:00 +14°C° 0 mm 3 m/s 750 mmHg 68%
    19:00 +14°C° 0 mm 2 m/s 750 mmHg 73%
    20:00 +13°C° 0 mm 2 m/s 750 mmHg 78%
    21:00 +10°C° 0 mm 2 m/s 750 mmHg 82%
    22:00 +8°C° 0 mm 2 m/s 750 mmHg 87%
    23:00 +7°C° 0 mm 2 m/s 750 mmHg 89%

    29 Mai, Vendredi

    Heure Température Précipitation Vent Pression Humidité
    00:00 +7°C° 0 mm 2 m/s 750 mmHg 91%
    01:00 +6°C° 0 mm 2 m/s 750 mmHg 93%
    02:00 +7°C° 0 mm 1 m/s 749 mmHg 94%
    03:00 +7°C° 0 mm 1 m/s 749 mmHg 94%
    04:00 +6°C° 0 mm 1 m/s 749 mmHg 95%
    05:00 +8°C° 0 mm 1 m/s 749 mmHg 90%
    06:00 +9°C° 0 mm 1 m/s 749 mmHg 85%
    07:00 +11°C° 0 mm 1 m/s 749 mmHg 81%
    08:00 +12°C° 0 mm 1 m/s 749 mmHg 77%
    09:00 +13°C° 0 mm 1 m/s 749 mmHg 73%
    10:00 +14°C° 0 mm 1 m/s 749 mmHg 68%
    11:00 +15°C° 0.1 mm 2 m/s 748 mmHg 66%
    12:00 +15°C° 0.1 mm 2 m/s 748 mmHg 64%
    13:00 +16°C° 0.1 mm 2 m/s 747 mmHg 62%
    14:00 +16°C° 0 mm 2 m/s 747 mmHg 61%
    15:00 +16°C° 0 mm 3 m/s 747 mmHg 61%
    16:00 +16°C° 0 mm 3 m/s 746 mmHg 60%
    17:00 +16°C° 0 mm 3 m/s 746 mmHg 64%
    18:00 +15°C° 0 mm 2 m/s 746 mmHg 68%
    19:00 +14°C° 0 mm 2 m/s 746 mmHg 73%
    20:00 +13°C° 0 mm 2 m/s 746 mmHg 78%
    21:00 +10°C° 0 mm 2 m/s 747 mmHg 83%
    22:00 +9°C° 0 mm 2 m/s 747 mmHg 89%
    23:00 +8°C° 0 mm 2 m/s 747 mmHg 89%

    30 Mai, Samedi

    Heure Température Précipitation Vent Pression Humidité
    00:00 +8°C° 0 mm 2 m/s 747 mmHg 90%
    01:00 +7°C° 0 mm 2 m/s 747 mmHg 90%
    02:00 +6°C° 0 mm 2 m/s 747 mmHg 91%
    03:00 +6°C° 0 mm 2 m/s 747 mmHg 92%
    04:00 +5°C° 0 mm 2 m/s 747 mmHg 92%
    05:00 +6°C° 0 mm 2 m/s 747 mmHg 85%
    06:00 +8°C° 0 mm 2 m/s 748 mmHg 77%
    07:00 +10°C° 0 mm 3 m/s 748 mmHg 69%
    08:00 +11°C° 0 mm 3 m/s 748 mmHg 64%
    09:00 +12°C° 0 mm 4 m/s 748 mmHg 59%
    10:00 +13°C° 0 mm 4 m/s 748 mmHg 54%
    11:00 +14°C° 0 mm 4 m/s 748 mmHg 53%
    12:00 +15°C° 0 mm 4 m/s 747 mmHg 52%
    13:00 +15°C° 0 mm 4 m/s 747 mmHg 51%
    14:00 +17°C° 0 mm 4 m/s 747 mmHg 52%
    15:00 +17°C° 0 mm 4 m/s 747 mmHg 52%
    16:00 +17°C° 0 mm 4 m/s 746 mmHg 53%
    17:00 +16°C° 0 mm 3 m/s 746 mmHg 59%
    18:00 +14°C° 0 mm 3 m/s 746 mmHg 65%
    19:00 +15°C° 0 mm 2 m/s 746 mmHg 72%
    20:00 +13°C° 0 mm 2 m/s 746 mmHg 77%
    21:00 +10°C° 0 mm 2 m/s 746 mmHg 83%
    22:00 +8°C° 0 mm 2 m/s 747 mmHg 89%
    23:00 +8°C° 0 mm 2 m/s 747 mmHg 90%

    31 Mai, Dimanche

    Heure Température Précipitation Vent Pression Humidité
    00:00 +8°C° 0 mm 1 m/s 746 mmHg 91%
    01:00 +8°C° 0 mm 1 m/s 746 mmHg 92%
    02:00 +7°C° 0 mm 1 m/s 746 mmHg 92%
    03:00 +7°C° 0 mm 1 m/s 746 mmHg 91%
    04:00 +7°C° 0 mm 1 m/s 746 mmHg 91%
    05:00 +8°C° 0 mm 1 m/s 746 mmHg 84%
    06:00 +10°C° 0 mm 1 m/s 746 mmHg 77%
    07:00 +12°C° 0 mm 2 m/s 746 mmHg 71%
    08:00 +13°C° 0 mm 2 m/s 746 mmHg 66%
    09:00 +14°C° 0 mm 3 m/s 746 mmHg 61%
    10:00 +16°C° 0 mm 3 m/s 746 mmHg 57%
    11:00 +17°C° 0 mm 3 m/s 746 mmHg 55%
    12:00 +18°C° 0 mm 3 m/s 746 mmHg 54%
    13:00 +19°C° 0 mm 3 m/s 745 mmHg 52%
    14:00 +19°C° 0 mm 3 m/s 745 mmHg 53%
    15:00 +19°C° 0 mm 3 m/s 745 mmHg 54%
    16:00 +19°C° 0 mm 3 m/s 745 mmHg 55%
    17:00 +18°C° 0 mm 3 m/s 744 mmHg 61%
    18:00 +18°C° 0 mm 2 m/s 744 mmHg 68%
    19:00 +17°C° 0 mm 2 m/s 744 mmHg 75%
    20:00 +15°C° 0 mm 2 m/s 744 mmHg 79%
    21:00 +14°C° 0 mm 2 m/s 745 mmHg 84%
    22:00 +12°C° 0 mm 2 m/s 745 mmHg 89%
    23:00 +10°C° 0 mm 2 m/s 745 mmHg 88%
    Voir plus